Regional Weather Roundup
Issued by NWS Upton, NY

Current Version | Previous Version | Graphics & Text | Print | Product List | Glossary Off
Versions: 1 2 3 4 5 6 7 8 9 10 11 12 13 14 15 16 17 18 19 20 21 22 23 24 25 26 27 28 29 30 31 32 33 34 35 36 37 38 39 40 41 42 43 44 45 46 47 48 49 50

000
ASUS41 KOKX 291208
RWROKX

REGIONAL WEATHER ROUNDUP
NATIONAL WEATHER SERVICE NEW YORK NY
800 AM EDT THU SEP 29 2016

NOTE: "FAIR" INDICATES FEW OR NO CLOUDS BELOW 12,000 FEET WITH NO
SIGNIFICANT WEATHER AND/OR OBSTRUCTIONS TO VISIBILITY.

NYZ071-072-176-178-NJZ106-104-291300-
NEW YORK CITY METRO AREA

CITY           SKY/WX    TMP DP  RH WIND       PRES   REMARKS
Central Park   CLOUDY    60  52  74 E15G25    30.35R
LaGuardia APRT CLOUDY    62  54  74 NE26G33   30.32R
Kennedy INTL   CLOUDY    62  54  74 NE18G28   30.30F
Newark/Liberty CLOUDY    61  53  75 NE14      30.31R
Bronx Bot Gard   N/A     57  48  72 NE3       30.33F
Wall St Helipt CLOUDY    63  57  82 NE17G26   30.30R
Teterboro      CLOUDY    60  50  69 NE8       30.32R
$$

NYZ177-179-078>081-291300-
LONG ISLAND NEW YORK

CITY           SKY/WX    TMP DP  RH WIND       PRES   REMARKS
Farmingdale    CLOUDY    61  55  81 NE14G23   30.32R
MacArthur/ISP  CLOUDY    60  55  83 NE13G22   30.32R
Shirley        CLOUDY    60  55  83 VRB7      30.33R
Riverhead      NOT AVBL
Westhampton    CLOUDY    60  54  80 NE20G28   30.34R
Southampton      N/A     61  55  82 NE12      30.30R
Bridgehampton    N/A     59  55  88 N3        30.19R
East Hampton   CLOUDY    59  53  82 NE13G22   30.34S
Montauk          N/A     60  54  80 NE13G23   30.36R
$$

NYZ052-065-067-291300-
HUDSON VALLEY

CITY           SKY/WX    TMP DP  RH WIND       PRES   REMARKS
White Plains   CLOUDY    57  49  74 NE10      30.33R
Newburgh       CLOUDY    57  50  77 E8        30.37R
Montgomery     CLOUDY    57  49  74 VRB7      30.36R
Poughkeepsie   CLOUDY    57  47  69 NE7       30.36R
Albany         MOSUNNY   53  47  79 NE7       30.42R
$$

NJZ001-105-106-008-010-013-015-019>022-104-291300-
NEW JERSEY

CITY           SKY/WX    TMP DP  RH WIND       PRES   REMARKS
Newark/Liberty CLOUDY    61  53  75 NE14      30.31R
Teterboro      CLOUDY    60  50  69 NE8       30.32R
Caldwell       LGT RAIN  58  51  78 E10G18    30.33R
Morristown     DRIZZLE   55  54  94 E9G17     30.32R
Somerville     CLOUDY    59  52  77 NE13G20   30.27S
Linden         NOT AVBL
Sussex         LGT RAIN  55  52  89 NE9       30.34R
Abdover          N/A     55  52  89 NE6       30.32R
Trenton        CLOUDY    60  57  89 E16G23    30.25R
Millville      CLOUDY    65  65 100 E20G28    30.19R
Atlantic City  CLOUDY    65  62  90 E17G35    30.21R
Wrightstown    CLOUDY    62  61  96 NE16      30.22R FOG
Toms River     LGT RAIN  63  61  93 E13G23    30.26R
Belmar         LGT RAIN  62  60  93 NE20G33   30.27R
$$

PAZ047>061-062-071-291300-
EASTERN PENNSYLVANIA

CITY           SKY/WX    TMP DP  RH WIND       PRES   REMARKS
Philadelphia   LGT RAIN  63  61  93 E17G30    30.21R
Allentown      LGT RAIN  57  53  86 NE16G23   30.26S
Scranton       LGT RAIN  55  52  89 E13G23    30.26S
$$

CTZ002-004>006-009-010-012-RIZ004-006-007-MAZ004-011-015-291300-
SOUTHERN NEW ENGLAND
 IN CT

CITY           SKY/WX    TMP DP  RH WIND       PRES   REMARKS
Bradley INTL   CLOUDY    56  47  71 NE15      30.42R
Hartford       CLOUDY    57  49  74 NE15      30.40R
Danbury        CLOUDY    55  48  77 NE13G23   30.38R
Wtrbury/Oxford CLOUDY    54  45  71 NE13G24   30.37R
Bridgeport     CLOUDY    59  50  72 NE13      30.36R
Meriden        CLOUDY    58  48  69 N12G24    30.38R
New Haven      CLOUDY    58  50  75 NE8       30.37R
Chester        CLOUDY    57  50  77 NE13G21   30.36S
Groton         CLOUDY    60  51  72 NE15G25   30.36R
Wilimantic     CLOUDY    58  49  72 NE13G23   30.40R

 IN RI

CITY           SKY/WX    TMP DP  RH WIND       PRES   REMARKS
Providence     PTSUNNY   57  48  72 NE14      30.41R
Block Island   CLOUDY    59  54  83 NE17G26   30.35R
Westerly       CLOUDY    58  50  75 NE10G18   30.37R
 IN MA

CITY           SKY/WX    TMP DP  RH WIND       PRES   REMARKS
Boston         MOSUNNY   56  48  74 NE18      30.44R
Worcester      PTSUNNY   48  44  86 NE12G24   30.43R
Westfield      PTSUNNY   55  47  74 N12       30.44R
Provincetown   CLOUDY    58  52  80 NE20      30.40R
Nantucket      CLOUDY    60  55  83 NE22G31   30.34R
$$

ANZ330-335-338-340-345-350-353-355-291300-
COASTAL MARINE OBSERVATIONS


STATION/POSITION TIME  SKY/WX   TEMP    WIND        PRES    VSBY  WAVE
                                AIR SEA DIR/SP/G                  HT/PER
                 (UTC)          (F)     (DEG/KT/KT) (MB)    (MI)  (FT/S)
NY HARB ENTRANCE 1150            64 70   60/ 27/ 33 1024.3          9/ 8
20S FIRE ISLAND  1150            64 69   60/ 27/ 33 1024.1         10/ 8
GREAT SOUTH BAY  1115            62 67   50/ 16/ 19   N/A
23 SSW MONTAUK P 1150            61 65   40/ 25/ 31 1026.3          9/ 7
15 E BARNEGAT LI 1130               69                N/A          10/ 8
HUDSON CANYON    1050            65 68              1023.0          9/ 8
KINGS POINT      1136            60 70              1026.4
EXECUTION ROCKS  1145            62      50/ 23/ 29   N/A
CENTRAL LI SOUND 1045            61 71   60/ 19/ 23   N/A           3/ 4
EASTERN LI SOUND NOT AVBL
ROBBINS REEF     1142            61      70/ 16/ 21 1026.2
$$


>>>>>>>>>>>>>>>>>>>>>>>>>>>> KEY <<<<<<<<<<<<<<<<<<<<<<<<<<<
>                                                          <
>     SKY/WX - Sky Condition/Present Weather               <
>     TMP    - Temperature in Fahrenheit                   <
>     DP     - Dew Point in Fahrenheit                     <
>     RH     - Relative Humidity in Percent                <
>     WIND   - Direction (from) and Speed in MPH           <
>     PRES   - Mean Sea Level Pressure (inches of Hg)      <
>     WCI    - Wind Chill Index                            <
>     VSB    - VISIBILITY IN MILES                         <
>     HX     - HEAT INDEX                                  <
>     TC     - TEMPERATURE IN CELSIUS                      <
>     VRB    - VARIABLE WIND DIRECTION                     <
>                                                          <
>>>>>>>>>>>>>>>>>>>>>>>>>>>> KEY <<<<<<<<<<<<<<<<<<<<<<<<<<<



USA.gov is the U.S. government's official web portal to all federal, state and local government web resources and services.